Location: Arboyeti
(42.1122°N, 44.6017°E)
Time: 05:49:13
(UTC+00:00)

IKONOS-2 - Pass Details

Date: 19 April 2021
Orbit: 600 x 610 km, 98.2° (Epoch: 09 May)

Event Time Altitude Azimuth Distance (km) Brightness Sun altitude
Exits shadow 23:46:02 78° 335° (NNW) 630 4.5 -24.3°
Drops below altitude 10° 23:50:03 10° 346° (NNW) 1,974 7.5 -23.8°
Sets 23:52:14 0° 347° (NNW) 2,884 8.4 -23.5°
